Regional Weather Roundup
Issued by NWS

Home | Current Version | Previous Version | Graphics & Text | Print | Product List | Glossary On
Versions: 1 2 3 4 5 6 7 8 9 10 11 12 13 14 15 16 17 18 19 20 21 22 23 24 25 26 27
000
ASUS45 KSLC 160210
RWRUT

UTAH REGIONAL WEATHER ROUNDUP
NATIONAL WEATHER SERVICE SALT LAKE CITY UT
800 PM MDT SUN OCT 15 2017

UTZ001>011-023>025-160300-

NORTHERN UTAH

CITY           SKY/WX    TMP DP  RH WIND       PRES   REMARKS
BRIGHAM CITY   PTCLDY    44  21  40 CALM      30.43S
HILL AFB       PTCLDY    45  20  36 NW5       30.41S
LOGAN          PTCLDY    47  23  38 CALM      30.41S
OGDEN          PTCLDY    46  19  34 CALM      30.41S
SALT LAKE CITY PTCLDY    49  28  44 N3        30.41S
TOOELE VALLEY  PTCLDY    34  21  60 S3        30.42S
WENDOVER       PTCLDY    46  18  32 CALM      30.42S
WEST JORDAN    PTCLDY    43  28  56 SW5       30.43S

$$

UTZ011>015-024>027-160300-

CENTRAL/NORTHEAST UTAH

CITY           SKY/WX    TMP DP  RH WIND       PRES   REMARKS
PROVO AIRPORT  PTCLDY    46  34  62 NW7       30.41S
MOAB/CANYONLAN CLEAR     46   4  17 W6        30.42R
DELTA          PTCLDY    46  18  31 CALM      30.41S
PRICE          CLEAR     43   3  19 N10       30.46S
ROOSEVELT      CLOUDY    39  18  41 W7        30.47R WCI  34
VERNAL         CLOUDY    43  16  33 W7        30.45R

$$

UTZ013>016-019>022-027-160300-

SOUTHERN UTAH

CITY           SKY/WX    TMP DP  RH WIND       PRES   REMARKS
BRYCE CANYON   CLEAR     31   3  30 SW5       30.52R WCI  26
CEDAR CITY     CLEAR     49  14  24 CALM      30.40R
MILFORD        CLEAR     42  11  28 N7        30.39S
ST GEORGE      PTCLDY    64   8  11 SE8       30.27R
HANKSVILLE     CLEAR     43   7  22 CALM      30.45R
BLANDING         N/A     43   7  22 NW3       30.52R

$$

REGIONAL REPORTS     COLORADO/ARIZONA

CITY           SKY/WX    TMP DP  RH WIND       PRES   REMARKS
CRAIG, CO      CLOUDY    37  19  48 CALM      30.47R
GRAND JUNCTION CLEAR     48  12  23 NE3       30.43R
RIFLE, CO      CLEAR     45  18  34 SE6       30.45R
MONTROSE, CO   CLOUDY    43  19  38 SE7       30.49R
CORTEZ, CO     CLEAR     38  19  46 CALM      30.46R
COLORADO CITY    N/A     46   9  21 NE7       30.39R
PAGE, AZ       CLEAR     55  15  20 CALM      30.38R
GRAND CANYON   CLEAR     38  -8  14 CALM      30.46R
KINGMAN, AZ    CLEAR     62  14  15 E8        30.26R
FLAGSTAFF, AZ  CLEAR     44  -3  14 CALM      30.48R

$$

REGIONAL REPORTS    NEVADA/IDAHO/WYOMING

CITY           SKY/WX    TMP DP  RH WIND       PRES   REMARKS
LAS VEGAS, NV  CLEAR     75  12   9 W3        30.21S
ELY, NY        CLEAR     40   3  21 S5        30.41R
ELKO, NV       PTCLDY    50  13  22 CALM      30.35R
POCATELLO, ID  CLOUDY    46  29  51 NE6       30.40F
BURLEY, ID     PTCLDY    48  26  42 NE10      30.35S
FORT BRIDGER,    N/A     45  12  27 S7        30.49R
EVANSTON, WY   CLOUDY    50  13  22 N6        30.46R
ROCK SPRINGS,  CLEAR     43  10  26 SW8       30.45S
KEMMERER, WY   CLOUDY    43  14  31 NW7       30.47R

$$




USA.gov is the U.S. government's official web portal to all federal, state and local government web resources and services.